[[{"header":{"parameterUnit":"m.s-1","parameterCategory":1,"la1":30.2991,"la2":30.254,"lo1":-89.0895,"lo2":-89.0444,"dy":0.0017,"dx":0.0017,"nx":28,"ny":28,"refTime":"2024-02-16T03:00:00:Z","depth":0,"parameterNumber":2,"parameterNumberName":"U-component_of_WINDS"},"data":[0,0,0,0,0,0,0,0,0,0,0,0,0,0,0,0,0,0,0,0,0,0,0,0,0,0,0,0,0,0,0,0,0,0,0,0,0,0,0,0,0,0,0,0,0,0,0,0,0,0,0,0,0,0,0,0,0,0,-1.1452,-1.1453,0,-1.1493,-1.1494,-1.1494,-1.1476,-1.1475,-1.1474,-1.1473,-1.1516,-1.1518,-1.152,0,0,0,0,0,0,0,0,0,0,0,0,0,-1.136,-1.1362,-1.1452,-1.1453,-1.1453,-1.1493,-1.1494,-1.1494,-1.1476,-1.1475,-1.1474,-1.1472,-1.1515,-1.1518,-1.152,0,0,0,0,0,0,0,0,0,0,0,0,0,-1.14,-1.1362,-1.1452,-1.1449,-1.1449,-1.1493,-1.1494,-1.1494,-1.1476,-1.1475,-1.1473,-1.1472,-1.1514,-1.1517,-1.1521,-1.157,0,0,-1.153,-1.1531,0,0,0,0,0,0,0,0,-1.1398,-1.1404,-1.1449,-1.1449,-1.145,-1.1478,-1.1477,-1.152,-1.1477,-1.1466,-1.1473,-1.1471,-1.1505,-1.1508,-1.1519,-1.1572,-1.1574,-1.153,-1.1532,-1.1534,-1.1534,0,0,0,0,0,0,0,-1.1395,-1.1402,-1.1468,-1.145,-1.145,-1.1446,-1.145,-1.1485,-1.1493,-1.1467,-1.1466,-1.1471,-1.1504,-1.1516,-1.152,-1.1575,-1.153,-1.1533,-1.1535,-1.1536,-1.1671,-1.1672,0,0,0,0,0,0,-1.1392,-1.14,-1.1467,-1.147,-1.142,-1.1449,-1.1453,-1.147,-1.1493,-1.1495,-1.1472,-1.147,-1.1512,-1.1517,-1.1522,-1.1582,-1.1534,-1.1536,-1.1538,-1.1669,-1.1671,-1.1673,0,0,0,0,0,0,-1.139,-1.1399,-1.1466,-1.1434,-1.1443,-1.1452,-1.1471,-1.1472,-1.1484,-1.1497,-1.1498,-1.1483,-1.1511,-1.1517,-1.1558,-1.1583,-1.1538,-1.1541,-1.1667,-1.167,-1.1672,-1.1702,0,0,0,0,0,0,-1.1388,-1.1398,-1.1417,-1.1435,-1.1444,-1.1501,-1.1473,-1.1474,-1.1489,-1.1487,-1.1507,-1.1509,-1.151,-1.1554,-1.1561,-1.1587,-1.1543,-1.1665,-1.1668,-1.1671,-1.1699,-1.1706,-1.1711,0,0,0,0,0,-1.1385,-1.1424,-1.1418,-1.1426,-1.1468,-1.1503,-1.1508,-1.1508,-1.1491,-1.151,-1.1519,-1.1508,-1.1579,-1.1558,-1.1567,-1.1593,-1.1663,-1.1667,-1.1671,-1.1697,-1.1704,-1.1711,0,0,0,0,0,0,-1.1408,-1.1426,-1.142,-1.1466,-1.1483,-1.1499,-1.1524,-1.1516,-1.1539,-1.1536,-1.1535,-1.154,-1.1583,-1.1592,-1.1568,-1.1643,-1.1619,-1.1624,-1.1635,-1.1643,-1.1649,-1.1646,-1.1546,0,0,0,0,0,-1.1419,-1.1445,-1.1459,-1.1499,-1.1508,-1.1514,-1.1529,-1.1528,-1.1546,-1.1553,-1.1564,-1.1582,-1.1609,-1.1626,-1.1651,-1.17,-1.1705,-1.1723,-1.1729,-1.1733,-1.1739,-1.1766,-1.1774,-1.1686,-1.1686,-1.1685,0,0,-1.1441,-1.1454,-1.1471,-1.1504,-1.1517,-1.1545,-1.152,-1.1551,-1.1572,-1.1558,-1.1597,-1.1606,-1.1626,-1.1672,-1.1692,-1.1681,-1.1764,-1.1738,-1.1742,-1.1745,-1.1771,-1.1779,-1.1787,-1.1688,-1.1688,-1.1687,0,0,-1.1496,-1.1508,-1.1542,-1.1556,-1.1576,-1.158,-1.1588,-1.1606,-1.1612,-1.1651,-1.1641,-1.1666,-1.1711,-1.1726,-1.174,-1.1801,-1.1792,-1.1809,-1.184,-1.1867,-1.1874,-1.188,-1.1903,-1.1911,-1.1814,-1.1814,-1.1814,0,-1.1521,-1.1562,-1.1561,-1.1592,-1.1607,-1.1596,-1.1631,-1.1644,-1.1671,-1.1682,-1.1669,-1.1726,-1.1738,-1.1787,-1.1802,-1.1813,-1.1823,-1.1807,-1.1873,-1.1879,-1.1885,-1.1907,-1.1915,-1.1816,-1.1815,-1.1815,-1.1815,0,-1.1593,-1.1621,-1.1647,-1.1673,-1.1691,-1.1724,-1.1728,-1.1747,-1.1744,-1.1749,-1.179,-1.1805,-1.1833,-1.1844,-1.1842,-1.1893,-1.1886,-1.1873,-1.1849,-1.1895,-1.1916,-1.1924,-1.1818,-1.1818,-1.1817,-1.1817,0,0,-1.1664,-1.1689,-1.1699,-1.1711,-1.1732,-1.1755,-1.1787,-1.1814,-1.183,-1.185,-1.1878,-1.1916,-1.1904,-1.192,-1.1918,-1.1942,-1.199,-1.1926,-1.1927,-1.1938,-1.2049,-1.2059,-1.2069,-1.1984,-1.1986,-1.1987,-1.2048,0,-1.1721,-1.1778,-1.1778,-1.1831,-1.1858,-1.1847,-1.1876,-1.1892,-1.1898,-1.1923,-1.1929,-1.1957,-1.1939,-1.1948,-1.1971,-1.1979,-1.2012,-1.1975,-1.2011,-1.2012,-1.2007,-1.2079,-1.209,-1.2146,-1.2055,-1.2057,-1.2058,0,-1.1795,-1.1817,-1.1873,-1.189,-1.1902,-1.1927,-1.1952,-1.1975,-1.1994,-1.1997,-1.2014,-1.2009,-1.2043,-1.2018,-1.2065,-1.2039,-1.2054,-1.2061,-1.2063,-1.2067,-1.2038,-1.2086,-1.2164,-1.2173,-1.207,-1.2069,-1.2068,0,-1.1843,-1.1886,-1.1925,-1.1935,-1.1957,-1.1975,-1.1985,-1.2002,-1.2018,-1.204,-1.2051,-1.2077,-1.2091,-1.2111,-1.2114,-1.2095,-1.2162,-1.2136,-1.2166,-1.2166,-1.2181,-1.218,-1.2264,-1.2189,-1.2189,-1.2189,-1.2189,0,-1.1907,-1.1942,-1.1946,-1.1971,-1.2009,-1.2009,-1.2047,-1.2055,-1.2071,-1.2097,-1.2089,-1.2113,-1.2115,-1.214,-1.2143,-1.2182,-1.2188,-1.2192,-1.2193,-1.2193,-1.2193,-1.2204,-1.22,-1.2191,-1.2191,-1.219,-1.219,0,-1.1967,-1.1971,-1.2013,-1.203,-1.2035,-1.2063,-1.2078,-1.2101,-1.2106,-1.2139,-1.2147,-1.2156,-1.2185,-1.219,-1.2224,-1.2226,-1.2273,-1.2269,-1.2267,-1.2267,-1.2296,-1.2294,-1.239,-1.2403,-1.2319,-1.232,-1.2321,0,-1.2008,-1.2035,-1.2054,-1.2071,-1.2082,-1.2109,-1.2125,-1.2126,-1.2143,-1.2167,-1.2187,-1.2216,-1.2239,-1.2287,-1.2297,-1.2323,-1.232,-1.2352,-1.2324,-1.2325,-1.2322,-1.2321,-1.2324,-1.2358,-1.2359,-1.236,-1.236,0,-1.2081,-1.2082,-1.2106,-1.2131,-1.2151,-1.2171,-1.219,-1.2204,-1.2207,-1.2227,-1.2257,-1.2275,-1.231,-1.2339,-1.2366,-1.2376,-1.237,-1.2369,-1.2377,-1.2379,-1.2377,-1.2379,-1.2283,-1.2367,-1.2366,-1.2366,-1.2365,-1.2365,-1.2133,-1.2157,-1.2174,-1.2201,-1.2216,-1.2233,-1.2256,-1.2264,-1.2289,-1.2318,-1.2316,-1.235,-1.2368,-1.2403,-1.2415,-1.2442,-1.2431,-1.2443,-1.2447,-1.245,-1.2453,-1.2372,-1.2446,-1.2446,-1.2446,-1.2446,-1.2446,0,-1.2206,-1.2217,-1.2242,-1.2269,-1.229,-1.2281,-1.2301,-1.232,-1.2349,-1.2367,-1.239,-1.2424,-1.2452,-1.2464,-1.2492,-1.2511,-1.2508,-1.2518,-1.2517,-1.252,-1.246,-1.2451,-1.252,-1.252,-1.252,-1.252,-1.252,-1.252,-1.2247,-1.2286,-1.2289,-1.2335,-1.2346,-1.2378,-1.2391,-1.2407,-1.2421,-1.246,-1.2483,-1.2491,-1.2506,-1.2535,-1.256,-1.2563,-1.2574,-1.2586,-1.2587,-1.2531,-1.2524,-1.2517,-1.2508,-1.2588,-1.2588,-1.2645,-1.2645,-1.2646]},{"header":{"parameterUnit":"m.s-1","parameterCategory":1,"la1":30.2991,"la2":30.254,"lo1":-89.0895,"lo2":-89.0444,"dy":0.0017,"dx":0.0017,"nx":28,"ny":28,"refTime":"2024-02-16T03:00:00:Z","depth":0,"parameterNumber":3,"parameterNumberName":"V-component_of_WINDS"},"data":[0,0,0,0,0,0,0,0,0,0,0,0,0,0,0,0,0,0,0,0,0,0,0,0,0,0,0,0,0,0,0,0,0,0,0,0,0,0,0,0,0,0,0,0,0,0,0,0,0,0,0,0,0,0,0,0,0,0,-0.6726,-0.6726,0,-0.6759,-0.676,-0.676,-0.6755,-0.6754,-0.6754,-0.6753,-0.6785,-0.6786,-0.6788,0,0,0,0,0,0,0,0,0,0,0,0,0,-0.6656,-0.6657,-0.6726,-0.6726,-0.6727,-0.6759,-0.676,-0.676,-0.6755,-0.6754,-0.6753,-0.6753,-0.6785,-0.6786,-0.6788,0,0,0,0,0,0,0,0,0,0,0,0,0,-0.6687,-0.6657,-0.6726,-0.6728,-0.6729,-0.6759,-0.676,-0.676,-0.6755,-0.6754,-0.6753,-0.6752,-0.6784,-0.6786,-0.6788,-0.6818,0,0,-0.6794,-0.6795,0,0,0,0,0,0,0,0,-0.6685,-0.669,-0.6727,-0.6728,-0.6729,-0.6752,-0.6747,-0.6779,-0.6755,-0.6745,-0.6753,-0.6752,-0.6775,-0.6777,-0.6785,-0.6819,-0.6821,-0.6795,-0.6796,-0.6797,-0.6797,0,0,0,0,0,0,0,-0.6683,-0.6688,-0.6739,-0.6728,-0.6729,-0.6727,-0.673,-0.6753,-0.6764,-0.6746,-0.6745,-0.675,-0.6775,-0.6783,-0.6786,-0.6821,-0.6795,-0.6796,-0.6798,-0.6798,-0.688,-0.6881,0,0,0,0,0,0,-0.6681,-0.6686,-0.6738,-0.674,-0.6705,-0.6729,-0.6733,-0.6745,-0.6764,-0.6766,-0.675,-0.6749,-0.678,-0.6784,-0.6787,-0.6823,-0.6797,-0.6799,-0.68,-0.6879,-0.688,-0.6881,0,0,0,0,0,0,-0.6679,-0.6685,-0.6737,-0.6713,-0.672,-0.6731,-0.6745,-0.6746,-0.6755,-0.6767,-0.6769,-0.6757,-0.678,-0.6784,-0.681,-0.6824,-0.68,-0.6801,-0.6878,-0.688,-0.6881,-0.6895,0,0,0,0,0,0,-0.6677,-0.6685,-0.6697,-0.6714,-0.6721,-0.676,-0.6746,-0.6748,-0.6759,-0.6758,-0.6774,-0.6776,-0.6779,-0.6807,-0.6812,-0.6827,-0.6803,-0.6877,-0.6879,-0.6881,-0.6894,-0.6897,-0.69,0,0,0,0,0,-0.6675,-0.6699,-0.6698,-0.6704,-0.6736,-0.6761,-0.6765,-0.6769,-0.676,-0.6772,-0.6779,-0.6776,-0.6822,-0.681,-0.6816,-0.6831,-0.6876,-0.6878,-0.688,-0.6892,-0.6896,-0.69,0,0,0,0,0,0,-0.6683,-0.6702,-0.67,-0.6731,-0.6744,-0.676,-0.6775,-0.6773,-0.6789,-0.6787,-0.6791,-0.6795,-0.6821,-0.6828,-0.6815,-0.686,-0.6848,-0.6851,-0.6855,-0.6859,-0.6862,-0.6859,-0.6805,0,0,0,0,0,-0.6689,-0.6708,-0.6723,-0.6748,-0.6755,-0.6764,-0.6775,-0.6777,-0.6791,-0.6796,-0.6806,-0.6819,-0.6836,-0.6848,-0.6864,-0.6894,-0.6897,-0.6907,-0.691,-0.6913,-0.6916,-0.6932,-0.6936,-0.6888,-0.6888,-0.6888,0,0,-0.6701,-0.6713,-0.6725,-0.675,-0.6761,-0.678,-0.6769,-0.679,-0.6803,-0.6799,-0.6825,-0.6832,-0.6846,-0.6874,-0.6887,-0.6881,-0.693,-0.6915,-0.6917,-0.6919,-0.6934,-0.6939,-0.6943,-0.689,-0.689,-0.6889,0,0,-0.6732,-0.6743,-0.6766,-0.6777,-0.6793,-0.6799,-0.6804,-0.682,-0.6825,-0.685,-0.6847,-0.6863,-0.6893,-0.6904,-0.6913,-0.6947,-0.6944,-0.6952,-0.6969,-0.6985,-0.6988,-0.6992,-0.7004,-0.7008,-0.6955,-0.6955,-0.6955,0,-0.6744,-0.6774,-0.6777,-0.6799,-0.681,-0.6807,-0.6829,-0.6839,-0.686,-0.6868,-0.6861,-0.6898,-0.6908,-0.6938,-0.6946,-0.6954,-0.696,-0.6951,-0.6988,-0.6991,-0.6994,-0.7006,-0.701,-0.6956,-0.6956,-0.6956,-0.6956,0,-0.6788,-0.6808,-0.6824,-0.6845,-0.6858,-0.6879,-0.6886,-0.6898,-0.6898,-0.6904,-0.693,-0.6941,-0.696,-0.6967,-0.6967,-0.6997,-0.6993,-0.6987,-0.6975,-0.7,-0.7011,-0.7015,-0.6958,-0.6957,-0.6957,-0.6957,0,0,-0.6826,-0.6849,-0.6855,-0.6864,-0.6881,-0.6897,-0.6918,-0.6937,-0.6947,-0.6961,-0.6978,-0.7003,-0.6998,-0.7008,-0.7009,-0.7023,-0.7049,-0.7015,-0.7015,-0.7021,-0.7082,-0.7087,-0.7093,-0.7047,-0.7048,-0.7048,-0.7081,0,-0.6859,-0.6897,-0.6901,-0.6935,-0.6953,-0.695,-0.6968,-0.6981,-0.6986,-0.7002,-0.7008,-0.7026,-0.7017,-0.7023,-0.7036,-0.7043,-0.7062,-0.7041,-0.7063,-0.7063,-0.706,-0.7098,-0.7104,-0.7134,-0.7086,-0.7086,-0.7087,0,-0.6903,-0.6919,-0.6955,-0.697,-0.6978,-0.6994,-0.7011,-0.7027,-0.704,-0.7043,-0.7055,-0.7054,-0.7075,-0.7061,-0.7089,-0.7075,-0.7084,-0.7088,-0.709,-0.7092,-0.7077,-0.7102,-0.7144,-0.7149,-0.7094,-0.7093,-0.7093,0,-0.6928,-0.6958,-0.6984,-0.6991,-0.7009,-0.7021,-0.7028,-0.7041,-0.7052,-0.7067,-0.7074,-0.709,-0.71,-0.7112,-0.7116,-0.7105,-0.7144,-0.713,-0.7146,-0.7146,-0.7155,-0.7155,-0.72,-0.716,-0.716,-0.716,-0.716,0,-0.6965,-0.6987,-0.6995,-0.7011,-0.7035,-0.7038,-0.7062,-0.7069,-0.708,-0.7096,-0.7094,-0.7109,-0.7113,-0.7128,-0.7131,-0.7154,-0.7158,-0.716,-0.7161,-0.7161,-0.7161,-0.7167,-0.7165,-0.7161,-0.7161,-0.7161,-0.716,0,-0.6997,-0.7003,-0.7031,-0.7045,-0.7049,-0.7066,-0.7078,-0.7093,-0.7098,-0.7119,-0.7123,-0.7131,-0.7149,-0.7154,-0.7175,-0.7177,-0.7204,-0.7202,-0.72,-0.72,-0.7216,-0.7215,-0.7267,-0.7274,-0.723,-0.723,-0.723,0,-0.702,-0.7037,-0.7053,-0.7065,-0.7073,-0.7091,-0.7102,-0.7105,-0.7117,-0.7133,-0.7146,-0.7164,-0.7178,-0.7207,-0.7214,-0.723,-0.7229,-0.7246,-0.7232,-0.7231,-0.723,-0.7229,-0.723,-0.7249,-0.725,-0.725,-0.7251,0,-0.7061,-0.7063,-0.708,-0.7098,-0.7111,-0.7125,-0.7138,-0.7147,-0.7152,-0.7165,-0.7184,-0.7195,-0.7217,-0.7235,-0.7251,-0.7258,-0.7255,-0.7255,-0.726,-0.726,-0.7258,-0.726,-0.7208,-0.7254,-0.7254,-0.7253,-0.7253,-0.7253,-0.709,-0.7105,-0.7118,-0.7137,-0.7147,-0.7159,-0.7174,-0.7181,-0.7197,-0.7215,-0.7216,-0.7236,-0.7248,-0.727,-0.7278,-0.7293,-0.7288,-0.7294,-0.7296,-0.7298,-0.73,-0.7255,-0.7296,-0.7296,-0.7296,-0.7296,-0.7296,0,-0.7131,-0.7139,-0.7156,-0.7175,-0.7189,-0.7185,-0.72,-0.7212,-0.723,-0.7242,-0.7256,-0.7277,-0.7294,-0.7302,-0.7319,-0.733,-0.7329,-0.7334,-0.7333,-0.7335,-0.7303,-0.7298,-0.7334,-0.7334,-0.7334,-0.7334,-0.7334,-0.7334,-0.7154,-0.7179,-0.7182,-0.7212,-0.722,-0.724,-0.7249,-0.726,-0.7269,-0.7293,-0.7308,-0.7313,-0.7323,-0.734,-0.7355,-0.7357,-0.7363,-0.7369,-0.7371,-0.7341,-0.7337,-0.7333,-0.7328,-0.7371,-0.7371,-0.7401,-0.7401,-0.7402]}]]